SR 24 @ Millsboro Pond, Millsboro DE USA current weather conditions

sailwx.info

Wind from 312 at 5 knots gusting 8

Air temperature 4.6° C
Dewpoint 0.1° C

Last reported at 2019-Nov-21 07:50 UTC.
Time now 2019-Nov-21 08:27 UTC

Location: N 38°36' W 075°17'.
View on Google Maps.

See reports from other nearby stations

  
Tides and Currents Weather Stations Pressure Air Temp Water Temp Dewpoint Dewpoint Depression Visibility Wind Speed Wind Dir Waves Ship Positions
date/time (UTC)wind fromknots sea level pressurealtimeterstation pressurevisibilityair tempwater tempwave heightnotes
2019-Nov-21 08:00 318 4 gusting 8 4.6
2019-Nov-21 07:50 312 5 gusting 8 4.6
2019-Nov-21 07:45 310 6 gusting 8 4.6
2019-Nov-21 07:40 313 4 gusting 7 4.6
2019-Nov-21 07:35 313 4 gusting 9 4.6
2019-Nov-21 07:30 307 6 gusting 9 4.6
2019-Nov-21 07:25 317 4 gusting 8 4.6
2019-Nov-21 07:20 311 5 gusting 8 4.6
2019-Nov-21 07:15 314 4 gusting 8 4.6
2019-Nov-21 07:10 327 4 gusting 8 4.6
2019-Nov-21 07:05 317 5 gusting 8 4.6
2019-Nov-21 07:00 317 4 gusting 8 4.6
2019-Nov-21 06:55 313 5 gusting 8 4.6
2019-Nov-21 06:50 310 5 gusting 8 4.6
2019-Nov-21 06:45 304 5 gusting 8 4.7
2019-Nov-21 06:40 301 5 gusting 7 4.6
2019-Nov-21 06:35 308 3 gusting 5 4.6
2019-Nov-21 06:30 304 2 gusting 6 4.6
2019-Nov-21 06:25 312 3 gusting 6 4.6
2019-Nov-21 06:20 310 3 gusting 5 4.6
2019-Nov-21 06:15 312 3 gusting 5 4.7
2019-Nov-21 06:10 312 2 gusting 5 4.8
2019-Nov-21 06:05 313 3 gusting 5 5.0
2019-Nov-21 06:00 318 2 gusting 5 4.8
2019-Nov-21 05:55 317 2 gusting 5 5.0
2019-Nov-21 05:50 325 3 gusting 5 5.0
2019-Nov-21 05:45 317 2 gusting 6 5.1
2019-Nov-21 05:40 318 4 gusting 6 5.1
2019-Nov-21 05:35 312 3 gusting 5 5.0
2019-Nov-21 05:30 309 3 gusting 5 5.1
2019-Nov-21 05:25 305 3 gusting 5 5.1
2019-Nov-21 05:20 307 3 gusting 5 5.2
2019-Nov-21 05:15 313 2 gusting 6 5.2
2019-Nov-21 05:10 314 3 gusting 6 5.2
2019-Nov-21 05:05 314 4 gusting 6 5.1
2019-Nov-21 05:00 319 4 gusting 6 5.2
2019-Nov-21 04:55 313 4 gusting 7 5.2
2019-Nov-21 04:50 312 3 gusting 8 5.2
2019-Nov-21 04:45 311 5 gusting 8 5.3
2019-Nov-21 04:40 306 5 gusting 8 5.5
2019-Nov-21 04:35 309 4 gusting 8 5.3
2019-Nov-21 04:30 314 4 gusting 6 5.3
2019-Nov-21 04:25 308 4 gusting 8 5.2
2019-Nov-21 04:20 313 4 gusting 8 5.2
2019-Nov-21 04:15 310 4 gusting 7 5.2
2019-Nov-21 04:10 304 4 gusting 7 5.3
2019-Nov-21 04:05 310 3 gusting 7 5.5
2019-Nov-21 04:00 315 3 gusting 7 5.2
2019-Nov-21 03:55 311 4 gusting 6 5.2
2019-Nov-21 03:50 297 3 gusting 5 5.3
2019-Nov-21 03:45 299 3 gusting 5 5.5
2019-Nov-21 03:40 295 3 gusting 4 5.5
2019-Nov-21 03:35 297 2 gusting 4 5.6
2019-Nov-21 03:30 293 3 gusting 4 5.6
2019-Nov-21 03:25 302 2 gusting 5 5.6
2019-Nov-21 03:20 300 3 gusting 5 5.8
2019-Nov-21 03:15 292 3 gusting 5 5.8
2019-Nov-21 03:10 297 3 gusting 6 6.0
2019-Nov-21 03:05 293 4 gusting 6 6.1
2019-Nov-21 03:00 299 3 gusting 6 6.0
2019-Nov-21 02:55 299 2 gusting 5 6.1
2019-Nov-21 02:50 304 3 gusting 6 6.1
2019-Nov-21 02:45 300 3 gusting 6 6.2
2019-Nov-21 02:40 298 3 gusting 5 6.2
2019-Nov-21 02:35 304 3 gusting 5 6.3
2019-Nov-21 02:30 309 3 gusting 7 6.5
2019-Nov-21 02:25 313 3 gusting 7 6.6
2019-Nov-21 02:20 309 3 gusting 8 6.6
2019-Nov-21 02:15 311 4 gusting 8 6.7
2019-Nov-21 02:10 306 4 gusting 7 6.7
2019-Nov-21 02:05 309 4 gusting 6 6.8
2019-Nov-21 02:00 303 4 gusting 8 7.0
2019-Nov-21 01:55 305 4 gusting 8 7.0
2019-Nov-21 01:50 307 5 gusting 7 7.1
2019-Nov-21 01:45 310 4 gusting 6 7.2
2019-Nov-21 01:40 303 4 gusting 7 7.2
2019-Nov-21 01:35 306 4 gusting 7 7.3
2019-Nov-21 01:30 304 5 gusting 6 7.6
2019-Nov-21 01:25 309 3 gusting 7 7.5
2019-Nov-21 01:20 300 3 gusting 7 7.6
2019-Nov-21 01:15 308 4 gusting 8 8.0
2019-Nov-21 01:10 315 3 gusting 8 8.1
2019-Nov-21 01:05 318 3 gusting 8 8.1
2019-Nov-21 01:00 322 4 gusting 8 8.1
2019-Nov-21 00:55 321 4 gusting 8 8.2
2019-Nov-21 00:50 323 4 gusting 7 8.1
2019-Nov-21 00:45 320 3 gusting 8 8.2
2019-Nov-21 00:40 319 4 gusting 8 8.3
2019-Nov-21 00:35 323 4 gusting 8 8.3
2019-Nov-21 00:30 321 3 gusting 7 8.3
2019-Nov-21 00:25 317 3 gusting 8 8.3
2019-Nov-21 00:20 313 5 gusting 9 8.5
2019-Nov-21 00:15 308 4 gusting 9 8.5
2019-Nov-21 00:10 305 5 gusting 7 8.6
2019-Nov-21 00:05 317 4 gusting 8 8.6
2019-Nov-21 00:00 317 4 gusting 8 8.7
2019-Nov-20 23:55 310 5 gusting 8 8.8
2019-Nov-20 23:50 308 4 gusting 7 8.8
2019-Nov-20 23:45 303 4 gusting 7 8.8
2019-Nov-20 23:40 303 5 gusting 7 9.1
2019-Nov-20 23:35 307 4 gusting 6 9.1
2019-Nov-20 23:30 318 4 gusting 6 9.2
2019-Nov-20 23:25 316 3 gusting 6 9.2
2019-Nov-20 23:20 315 3 gusting 6 9.2
2019-Nov-20 23:15 317 3 gusting 7 9.5
2019-Nov-20 23:10 328 5 gusting 7 9.3
2019-Nov-20 23:05 321 3 gusting 7 9.3
2019-Nov-20 23:00 318 3 gusting 6 9.5
2019-Nov-20 22:55 342 3 gusting 7 9.6
2019-Nov-20 22:50 325 3 gusting 8 9.6
2019-Nov-20 22:45 334 3 gusting 8 9.7
2019-Nov-20 22:40 326 3 gusting 9 9.8
2019-Nov-20 22:35 334 5 gusting 9 9.8
2019-Nov-20 22:30 331 3 gusting 9 9.8
2019-Nov-20 22:25 330 4 gusting 10 9.8
2019-Nov-20 22:20 328 5 gusting 10 10.0
2019-Nov-20 22:15 335 3 gusting 10 10.0
2019-Nov-20 22:10 334 4 gusting 13 10.0
2019-Nov-20 22:05 335 5 gusting 13 10.1
2019-Nov-20 22:00 341 5 gusting 13 10.1
2019-Nov-20 21:55 342 4 gusting 13 10.0
2019-Nov-20 21:50 331 5 gusting 14 10.1
2019-Nov-20 21:45 333 7 gusting 15 10.2
2019-Nov-20 21:40 342 9 gusting 15 10.1
2019-Nov-20 21:35 342 6 gusting 11 10.0
2019-Nov-20 21:30 334 6 gusting 15 10.0
2019-Nov-20 21:25 347 5 gusting 15 10.2
2019-Nov-20 21:20 341 6 gusting 14 10.2
2019-Nov-20 21:15 319 6 gusting 13 10.1
2019-Nov-20 21:10 343 6 gusting 16 10.2
2019-Nov-20 21:05 343 9 gusting 16 10.2
2019-Nov-20 21:00 336 6 gusting 14 10.3
2019-Nov-20 20:55 339 6 gusting 14 10.4
2019-Nov-20 20:50 339 7 gusting 21 10.6
2019-Nov-20 20:45 352 10 gusting 21 10.8
2019-Nov-20 20:40 341 8 gusting 18 10.8
2019-Nov-20 20:35 341 7 gusting 15 10.8
2019-Nov-20 20:30 340 7 gusting 15 10.8
2019-Nov-20 20:25 343 8 gusting 19 10.8
2019-Nov-20 20:20 332 8 gusting 19 10.8
2019-Nov-20 20:15 346 6 gusting 15 10.8
2019-Nov-20 20:10 329 8 gusting 16 10.8
2019-Nov-20 20:05 341 5 gusting 16 11.2
2019-Nov-20 20:00 355 9 gusting 15 11.2
2019-Nov-20 19:55 336 7 gusting 13 11.4
2019-Nov-20 19:50 324 7 gusting 13 11.4
2019-Nov-20 19:45 327 7 gusting 19 11.3
2019-Nov-20 19:40 333 8 gusting 19 11.2
2019-Nov-20 19:35 336 6 gusting 12 11.3
2019-Nov-20 19:30 343 5 gusting 15 11.1
2019-Nov-20 19:25 345 9 gusting 15 10.8
2019-Nov-20 19:20 345 7 gusting 18 10.8
2019-Nov-20 19:15 340 10 gusting 18 10.9
2019-Nov-20 19:10 328 6 gusting 19 11.2
2019-Nov-20 19:05 340 9 gusting 19 11.1
2019-Nov-20 19:00 348 10 gusting 17 11.2
2019-Nov-20 18:55 350 8 gusting 18 11.2
2019-Nov-20 18:50 345 11 gusting 18 10.9
2019-Nov-20 18:45 006 9 gusting 15 11.3
2019-Nov-20 18:40 002 9 gusting 15 10.8
2019-Nov-20 18:35 341 9 gusting 15 10.3
2019-Nov-20 18:30 334 5 gusting 15 10.8
2019-Nov-20 18:25 001 7 gusting 15 10.8
2019-Nov-20 18:20 326 8 gusting 17 10.6
2019-Nov-20 18:15 326 8 gusting 17 10.7
2019-Nov-20 18:10 001 7 gusting 15 10.4
2019-Nov-20 18:05 352 7 gusting 17 10.3
2019-Nov-20 18:00 355 9 gusting 17 10.2
2019-Nov-20 17:55 336 6 gusting 11 10.6
2019-Nov-20 17:50 350 6 gusting 11 10.8
2019-Nov-20 17:45 357 5 gusting 13 11.1
2019-Nov-20 17:40 344 6 gusting 14 10.3
2019-Nov-20 17:35 353 7 gusting 14 10.4
2019-Nov-20 17:30 342 8 gusting 17 10.2
2019-Nov-20 17:25 343 6 gusting 17 10.4
2019-Nov-20 17:20 341 6 gusting 14 10.2
2019-Nov-20 17:15 359 8 gusting 16 10.2
2019-Nov-20 17:10 344 6 gusting 16 10.3
2019-Nov-20 17:05 345 8 gusting 14 9.8
2019-Nov-20 17:00 335 6 gusting 15 9.7
2019-Nov-20 16:55 328 9 gusting 15 9.6
2019-Nov-20 16:50 338 8 gusting 14 10.0
2019-Nov-20 16:45 329 7 gusting 14 9.8
2019-Nov-20 16:40 314 5 gusting 16 10.2
2019-Nov-20 16:35 338 6 gusting 16 10.2
2019-Nov-20 16:30 358 8 gusting 15 10.2
2019-Nov-20 16:25 328 6 gusting 15 10.0
2019-Nov-20 16:20 322 6 gusting 13 9.7
2019-Nov-20 16:15 342 6 gusting 13 9.6
2019-Nov-20 16:10 333 7 gusting 14 9.5
2019-Nov-20 16:05 318 7 gusting 14 9.3
2019-Nov-20 16:00 316 8 gusting 14 9.1
2019-Nov-20 15:55 329 6 gusting 14 9.1
2019-Nov-20 15:50 320 6 gusting 14 9.1
2019-Nov-20 15:45 324 6 gusting 10 9.0
2019-Nov-20 15:40 329 5 gusting 11 8.8
2019-Nov-20 15:35 323 5 gusting 13 8.8
2019-Nov-20 15:30 352 7 gusting 13 8.6
2019-Nov-20 15:25 327 5 gusting 13 8.7
2019-Nov-20 15:20 323 7 gusting 13 8.6
2019-Nov-20 15:15 328 4 gusting 8 8.6
2019-Nov-20 15:10 330 5 gusting 11 8.6
2019-Nov-20 15:05 343 3 gusting 11 8.5
2019-Nov-20 15:00 330 5 gusting 9 8.5
2019-Nov-20 14:55 317 5 gusting 9 8.5
2019-Nov-20 14:50 346 4 gusting 9 8.5
2019-Nov-20 14:45 334 5 gusting 9 8.3
2019-Nov-20 14:40 334 2 gusting 9 8.3
2019-Nov-20 14:35 349 3 gusting 9 8.2
2019-Nov-20 14:30 329 4 gusting 8 8.1
2019-Nov-20 14:25 342 4 gusting 9 7.8
2019-Nov-20 14:20 324 4 gusting 9 7.6
2019-Nov-20 14:15 328 6 gusting 9 7.6
2019-Nov-20 14:10 335 2 gusting 7 7.8
2019-Nov-20 14:05 320 4 gusting 7 7.7
2019-Nov-20 14:00 320 4 gusting 6 7.6
2019-Nov-20 13:55 338 2 gusting 5 7.5
2019-Nov-20 13:50 323 3 gusting 5 7.1
2019-Nov-20 13:45 325 3 gusting 5 7.1
2019-Nov-20 13:40 314 2 gusting 5 7.0
2019-Nov-20 13:35 327 3 gusting 5 6.8
2019-Nov-20 13:30 316 3 gusting 5 6.8
2019-Nov-20 13:25 321 2 gusting 5 6.8
2019-Nov-20 13:20 332 2 gusting 6 6.7
2019-Nov-20 13:15 322 2 gusting 6 6.8
2019-Nov-20 13:10 326 2 gusting 5 6.8
2019-Nov-20 13:05 326 2 gusting 5 6.8
2019-Nov-20 13:00 322 3 gusting 5 6.8
2019-Nov-20 12:55 326 2 gusting 4 7.1
2019-Nov-20 12:50 333 2 gusting 5 7.0
2019-Nov-20 12:45 340 2 gusting 5 7.0
2019-Nov-20 12:40 331 1 gusting 4 6.8
2019-Nov-20 12:35 342 2 gusting 4 6.7
2019-Nov-20 12:30 337 2 gusting 3 6.7
2019-Nov-20 12:25 357 1 gusting 3 6.6
2019-Nov-20 12:20 344 2 gusting 3 6.6
2019-Nov-20 12:15 329 1 gusting 3 6.6
2019-Nov-20 12:10 325 2 gusting 3 6.3
2019-Nov-20 12:05 323 2 gusting 3 6.5
2019-Nov-20 12:00 311 2 gusting 3 6.5
2019-Nov-20 11:55 331 2 gusting 3 6.5
2019-Nov-20 11:50 329 1 gusting 3 6.5
2019-Nov-20 11:45 329 1 gusting 3 6.3
2019-Nov-20 11:40 327 2 gusting 3 6.2
2019-Nov-20 11:35 328 1 gusting 3 6.3
2019-Nov-20 11:30 321 1 gusting 3 6.2
2019-Nov-20 11:25 313 2 gusting 3 6.2
2019-Nov-20 11:20 317 1 gusting 2 6.2
2019-Nov-20 11:15 321 1 gusting 2 6.2
2019-Nov-20 11:10 310 1 gusting 5 6.1
2019-Nov-20 11:05 323 2 gusting 5 6.2
2019-Nov-20 11:00 318 1 gusting 2 6.1
2019-Nov-20 10:55 312 1 gusting 2 6.2
2019-Nov-20 10:50 331 1 gusting 2 6.2
2019-Nov-20 10:45 344 1 gusting 2 6.2
2019-Nov-20 10:40 320 1 gusting 2 6.1
2019-Nov-20 10:35 010 1 gusting 2 6.1
2019-Nov-20 10:30 036 1 6.0
2019-Nov-20 10:25 6.1
2019-Nov-20 10:20 6.1
2019-Nov-20 10:15 6.1
2019-Nov-20 10:10 025 1 gusting 2 6.1
2019-Nov-20 10:05 354 1 gusting 2 6.1
2019-Nov-20 10:00 355 1 gusting 2 6.1
2019-Nov-20 09:55 332 0 gusting 2 6.2
2019-Nov-20 09:50 335 1 gusting 2 6.1
2019-Nov-20 09:45 320 1 gusting 2 6.1
2019-Nov-20 09:40 327 1 gusting 3 6.1
2019-Nov-20 09:35 337 1 gusting 3 6.1
2019-Nov-20 09:30 327 1 gusting 3 6.1
2019-Nov-20 09:25 338 2 gusting 3 6.1
2019-Nov-20 09:20 330 2 gusting 4 6.0
2019-Nov-20 09:15 332 2 gusting 4 6.0
2019-Nov-20 09:10 345 1 gusting 3 5.8
2019-Nov-20 09:05 335 2 gusting 2 5.8
2019-Nov-20 09:00 330 1 gusting 2 5.8
2019-Nov-20 08:55 343 1 gusting 2 5.8
2019-Nov-20 08:50 319 1 gusting 2 5.7
2019-Nov-20 08:45 328 1 gusting 2 5.7
2019-Nov-20 08:40 306 1 gusting 2 5.7
2019-Nov-20 08:35 312 1 gusting 1 5.7
2019-Nov-20 08:30 330 1 gusting 1 5.6
2019-Nov-20 08:25 308 1 gusting 2 5.7
2019-Nov-20 08:20 300 1 6.0
2019-Nov-20 08:15 313 0 5.8
2019-Nov-20 08:10 5.6
2019-Nov-20 08:05 5.6
2019-Nov-20 08:00 5.6
2019-Nov-20 07:55 5.7
2019-Nov-20 07:50 014 1 gusting 2 5.8
2019-Nov-20 07:45 012 1 gusting 2 5.8
2019-Nov-20 07:40 344 1 gusting 2 6.0
2019-Nov-20 07:35 291 0 gusting 2 6.0
2019-Nov-20 07:30 266 1 6.0
2019-Nov-20 07:25 6.0
2019-Nov-20 07:20 6.0
2019-Nov-20 07:15 003 1 6.0
2019-Nov-20 07:10 6.0
2019-Nov-20 07:05 5.7
2019-Nov-20 07:00 5.7
2019-Nov-20 06:55 5.7
2019-Nov-20 06:50 5.6
2019-Nov-20 06:45 5.7
2019-Nov-20 06:40 5.7
2019-Nov-20 06:35 5.8
2019-Nov-20 06:30 339 1 gusting 2 5.8
2019-Nov-20 06:25 6.0
2019-Nov-20 06:20 358 1 gusting 2 6.0
2019-Nov-20 06:15 008 1 gusting 2 6.1
2019-Nov-20 06:10 329 1 gusting 2 6.0
2019-Nov-20 06:05 335 1 gusting 2 6.0
2019-Nov-20 06:00 296 1 gusting 2 6.1
2019-Nov-20 05:55 289 1 gusting 2 6.1
2019-Nov-20 05:50 279 1 gusting 1 6.1
2019-Nov-20 05:45 294 1 6.2
2019-Nov-20 05:40 6.2
2019-Nov-20 05:35 6.2
2019-Nov-20 05:30 290 1 gusting 1 6.2
2019-Nov-20 05:25 300 1 6.3
2019-Nov-20 05:20 292 0 6.3
2019-Nov-20 05:15 6.1
2019-Nov-20 05:10 6.3
2019-Nov-20 05:05 6.3
2019-Nov-20 05:00 6.2
2019-Nov-20 04:55 6.2
2019-Nov-20 04:50 6.2
2019-Nov-20 04:45 6.1
2019-Nov-20 04:40 6.1
2019-Nov-20 04:35 6.1
2019-Nov-20 04:30 6.1
2019-Nov-20 04:25 6.2
2019-Nov-20 04:20 6.2
2019-Nov-20 04:15 6.5
2019-Nov-20 04:10 6.5
2019-Nov-20 04:05 005 1 6.6
2019-Nov-20 04:00 6.6
2019-Nov-20 03:55 6.6
2019-Nov-20 03:50 6.6
2019-Nov-20 03:45 6.6
2019-Nov-20 03:40 6.6
2019-Nov-20 03:35 6.7
2019-Nov-20 03:30 6.7
2019-Nov-20 03:25 6.7
2019-Nov-20 03:20 298 1 gusting 1 6.7
2019-Nov-20 03:15 309 1 gusting 1 6.7
2019-Nov-20 03:10 332 0 gusting 1 6.7
2019-Nov-20 03:05 302 0 6.8
2019-Nov-20 03:02 7.0
2019-Nov-20 02:25 6.8
2019-Nov-20 02:20 7.1
2019-Nov-20 02:15 7.3
2019-Nov-20 02:10 358 1 7.5
2019-Nov-20 02:05 7.3
2019-Nov-20 02:00 7.3
2019-Nov-20 01:55 7.3
2019-Nov-20 01:50 7.3
2019-Nov-20 01:45 7.2
2019-Nov-20 01:40 7.3
2019-Nov-20 01:35 7.6
2019-Nov-20 01:30 7.5
2019-Nov-20 01:25 7.5
2019-Nov-20 01:20 182 1 7.6
2019-Nov-20 01:15 7.5
2019-Nov-20 01:10 087 0 7.3
2019-Nov-20 01:05 7.5
2019-Nov-20 01:00 7.6
2019-Nov-20 00:55 7.6
2019-Nov-20 00:50 7.6
2019-Nov-20 00:45 7.7
2019-Nov-20 00:40 7.7
2019-Nov-20 00:35 7.8
2019-Nov-20 00:30 8.1
2019-Nov-20 00:25 8.2
2019-Nov-20 00:20 8.3
2019-Nov-20 00:15 8.5
2019-Nov-20 00:10 8.3
2019-Nov-20 00:05 8.1
2019-Nov-20 00:00 8.0
2019-Nov-19 23:55 147 1 gusting 1 8.1
2019-Nov-19 23:50 131 1 gusting 1 8.1
2019-Nov-19 23:45 151 0 8.5
2019-Nov-19 23:40 9.0
2019-Nov-19 23:35 294 1 gusting 2 8.6
2019-Nov-19 23:30 280 0 gusting 2 8.6
2019-Nov-19 23:25 8.6
2019-Nov-19 23:20 309 1 gusting 2 8.7
2019-Nov-19 23:15 318 1 gusting 2 8.7
2019-Nov-19 23:10 296 0 gusting 3 8.8
2019-Nov-19 23:05 343 1 gusting 3 9.1
2019-Nov-19 23:00 347 1 gusting 2 9.0
2019-Nov-19 22:55 323 1 gusting 1 9.1
2019-Nov-19 22:50 324 1 9.1
2019-Nov-19 22:45 302 0 9.1
2019-Nov-19 22:40 254 1 8.7
2019-Nov-19 22:35 8.6
2019-Nov-19 22:30 8.6
2019-Nov-19 22:25 131 0 8.7
2019-Nov-19 22:20 8.8
2019-Nov-19 22:15 9.1
2019-Nov-19 22:10 9.6
2019-Nov-19 22:05 10.0
2019-Nov-19 22:00 10.0
2019-Nov-19 21:55 287 0 gusting 2 10.0
2019-Nov-19 21:50 281 1 gusting 2 10.1
2019-Nov-19 21:45 10.4
2019-Nov-19 21:40 351 1 gusting 2 10.3
2019-Nov-19 21:35 326 1 gusting 2 10.3
2019-Nov-19 21:30 330 1 gusting 2 10.9
2019-Nov-19 21:25 323 1 gusting 2 10.9
2019-Nov-19 21:20 11.1
2019-Nov-19 21:15 224 1 11.2
2019-Nov-19 21:10 11.2
2019-Nov-19 21:05 11.2
2019-Nov-19 21:00 297 1 gusting 2 11.2
2019-Nov-19 20:55 309 1 gusting 2 11.2
2019-Nov-19 20:50 267 0 gusting 3 11.2
2019-Nov-19 20:45 265 1 gusting 4 11.3
2019-Nov-19 20:40 250 2 gusting 4 11.2
2019-Nov-19 20:35 248 1 gusting 3 11.3
2019-Nov-19 20:30 227 1 gusting 3 11.3
2019-Nov-19 20:25 230 1 gusting 3 11.2
2019-Nov-19 20:20 260 1 gusting 4 11.2
2019-Nov-19 20:15 252 2 gusting 4 11.2
2019-Nov-19 20:10 284 2 gusting 4 11.2
2019-Nov-19 20:05 298 2 gusting 4 11.2
2019-Nov-19 20:00 291 2 gusting 4 11.2
2019-Nov-19 19:55 291 1 gusting 4 11.1
2019-Nov-19 19:50 306 3 gusting 4 10.8
2019-Nov-19 19:45 317 1 gusting 6 10.8
2019-Nov-19 19:40 301 4 gusting 6 10.7
2019-Nov-19 19:35 272 4 gusting 6 10.6
2019-Nov-19 19:30 297 3 gusting 5 10.6
2019-Nov-19 19:25 299 3 gusting 6 10.6
2019-Nov-19 19:20 297 3 gusting 6 10.8
2019-Nov-19 19:15 264 3 gusting 6 10.4
2019-Nov-19 19:10 296 3 gusting 5 10.4
2019-Nov-19 19:05 272 1 gusting 5 10.4
2019-Nov-19 19:00 305 3 gusting 5 10.4
2019-Nov-19 18:55 302 3 gusting 5 10.3
2019-Nov-19 18:50 269 2 gusting 5 10.2
2019-Nov-19 18:45 291 4 gusting 6 10.1
2019-Nov-19 18:40 325 2 gusting 6 10.3
2019-Nov-19 18:30 307 4 gusting 7 10.2
2019-Nov-19 18:25 275 4 gusting 8 10.2
2019-Nov-19 18:20 302 4 gusting 8 10.2
2019-Nov-19 18:15 318 3 gusting 7 10.4
2019-Nov-19 18:10 321 3 gusting 8 10.7
2019-Nov-19 18:05 332 4 gusting 8 10.6
2019-Nov-19 18:00 009 5 gusting 7 10.3
2019-Nov-19 17:55 344 3 gusting 7 10.2
2019-Nov-19 17:50 295 3 gusting 7 10.2
2019-Nov-19 17:45 310 3 gusting 9 10.3
2019-Nov-19 17:40 335 5 gusting 9 10.6
2019-Nov-19 17:35 315 3 gusting 8 10.8
2019-Nov-19 17:30 296 4 gusting 10 10.2
2019-Nov-19 17:25 299 6 gusting 10 10.2
2019-Nov-19 17:20 311 4 gusting 8 10.2
2019-Nov-19 17:15 297 4 gusting 9 10.2
2019-Nov-19 17:10 290 5 gusting 9 9.6
2019-Nov-19 17:05 281 6 gusting 9 9.6
2019-Nov-19 17:00 283 5 gusting 8 9.5
2019-Nov-19 16:55 270 5 gusting 9 9.6
2019-Nov-19 16:50 305 5 gusting 9 9.3
2019-Nov-19 16:45 286 7 gusting 9 9.5
2019-Nov-19 16:40 295 4 gusting 7 9.7
2019-Nov-19 16:35 295 2 gusting 7 9.6
2019-Nov-19 16:30 286 3 gusting 7 9.1
2019-Nov-19 16:25 276 6 gusting 8 9.1
2019-Nov-19 16:20 300 5 gusting 10 9.2
2019-Nov-19 16:15 289 6 gusting 10 9.2
2019-Nov-19 16:10 290 4 gusting 9 9.1
2019-Nov-19 16:05 317 5 gusting 9 9.0
2019-Nov-19 16:00 307 5 gusting 8 9.1
2019-Nov-19 15:55 293 4 gusting 7 8.8
2019-Nov-19 15:50 289 4 gusting 7 8.7
2019-Nov-19 15:45 289 4 gusting 8 8.5
2019-Nov-19 15:40 262 5 gusting 8 8.5
2019-Nov-19 15:35 272 4 gusting 8 8.5
2019-Nov-19 15:30 289 4 gusting 6 8.3
2019-Nov-19 15:25 295 4 gusting 8 8.5
2019-Nov-19 15:20 277 5 gusting 8 8.2
2019-Nov-19 15:15 248 4 gusting 7 8.2
2019-Nov-19 15:10 280 3 gusting 8 8.1
2019-Nov-19 15:05 260 4 gusting 8 8.0
2019-Nov-19 15:00 283 3 gusting 7 7.7
2019-Nov-19 14:55 288 4 gusting 7 7.6
2019-Nov-19 14:50 291 4 gusting 6 7.6
2019-Nov-19 14:45 288 4 gusting 8 7.6
2019-Nov-19 14:40 306 3 gusting 10 7.5
2019-Nov-19 14:35 299 6 gusting 10 7.5
2019-Nov-19 14:30 277 4 gusting 7 7.5
2019-Nov-19 14:25 305 3 gusting 10 7.3
2019-Nov-19 14:20 323 4 gusting 10 7.3
2019-Nov-19 14:15 314 5 gusting 8 7.2
2019-Nov-19 14:10 322 3 gusting 6 7.3
2019-Nov-19 14:05 326 3 gusting 6 7.3
2019-Nov-19 14:00 298 3 gusting 7 7.2
2019-Nov-19 13:55 287 4 gusting 7 7.1
2019-Nov-19 13:50 317 3 gusting 7 7.2
2019-Nov-19 13:45 305 4 gusting 7 7.1
2019-Nov-19 13:40 327 2 gusting 7 7.1
2019-Nov-19 13:35 296 3 gusting 7 7.1
2019-Nov-19 13:30 318 4 gusting 6 7.1
2019-Nov-19 13:25 297 4 gusting 8 7.0
2019-Nov-19 13:20 314 4 gusting 8 6.8
2019-Nov-19 13:15 300 5 gusting 10 6.7
2019-Nov-19 13:10 309 5 gusting 10 6.6
2019-Nov-19 13:05 305 5 gusting 9 6.6
2019-Nov-19 13:00 301 4 gusting 8 6.6
2019-Nov-19 12:55 297 4 gusting 5 6.3
2019-Nov-19 12:50 313 3 gusting 5 6.3
2019-Nov-19 12:45 321 3 gusting 4 6.2
2019-Nov-19 12:40 319 2 gusting 4 6.2
2019-Nov-19 12:35 292 1 gusting 3 6.1
2019-Nov-19 12:30 259 1 gusting 3 6.0
2019-Nov-19 12:25 254 1 gusting 4 5.8
2019-Nov-19 12:20 292 1 gusting 4 5.7
2019-Nov-19 12:15 249 1 gusting 3 5.8
2019-Nov-19 12:10 222 2 gusting 3 6.0
2019-Nov-19 12:05 228 1 gusting 2 5.8
2019-Nov-19 12:00 271 1 gusting 4 5.8
2019-Nov-19 11:55 292 2 gusting 4 5.8
2019-Nov-19 11:50 299 2 gusting 4 5.8
2019-Nov-19 11:45 311 2 gusting 4 6.0
2019-Nov-19 11:40 283 2 gusting 5 6.1
2019-Nov-19 11:35 284 3 gusting 5 6.0
2019-Nov-19 11:30 315 2 gusting 4 6.0
2019-Nov-19 11:25 308 3 gusting 4 6.1
2019-Nov-19 11:20 288 2 gusting 3 6.1
2019-Nov-19 11:15 257 2 gusting 4 6.1
2019-Nov-19 11:10 261 2 gusting 5 6.1
2019-Nov-19 11:05 218 1 gusting 5 6.1
2019-Nov-19 11:00 234 2 gusting 6 6.1
2019-Nov-19 10:55 234 3 gusting 6 6.1
2019-Nov-19 10:50 248 1 gusting 2 6.1
2019-Nov-19 10:45 232 1 gusting 2 6.3
2019-Nov-19 10:40 212 1 gusting 2 6.3
2019-Nov-19 10:35 225 1 gusting 3 6.5
2019-Nov-19 10:30 285 1 gusting 4 6.5
2019-Nov-19 10:25 311 2 gusting 6 6.6
2019-Nov-19 10:20 281 2 gusting 6 6.6
2019-Nov-19 10:15 227 2 gusting 5 6.5
2019-Nov-19 10:10 217 2 gusting 4 6.3
2019-Nov-19 10:05 234 1 gusting 3 6.3
2019-Nov-19 10:00 6.3
2019-Nov-19 09:55 6.2
2019-Nov-19 09:50 285 1 gusting 3 6.2
2019-Nov-19 09:45 6.2
2019-Nov-19 09:40 6.1
2019-Nov-19 09:35 226 1 gusting 3 6.2
2019-Nov-19 09:30 229 2 gusting 4 6.2
2019-Nov-19 09:25 288 1 gusting 4 6.2
2019-Nov-19 09:20 305 2 gusting 4 6.2
2019-Nov-19 09:15 319 2 gusting 4 6.5
2019-Nov-19 09:10 311 2 gusting 3 6.5
2019-Nov-19 09:05 297 2 gusting 4 6.6
2019-Nov-19 09:00 294 2 gusting 4 6.6
2019-Nov-19 08:55 292 2 gusting 4 6.6
2019-Nov-19 08:50 290 2 gusting 4 6.6
2019-Nov-19 08:45 288 2 gusting 4 6.6
2019-Nov-19 08:40 262 2 gusting 4 6.5
2019-Nov-19 08:35 290 2 gusting 4 6.5
2019-Nov-19 08:30 272 1 gusting 3 6.5
2019-Nov-19 08:25 275 1 gusting 3 6.5
2019-Nov-19 08:20 273 2 gusting 3 6.5
2019-Nov-19 08:15 259 1 gusting 3 6.5
2019-Nov-19 08:10 254 1 gusting 4 6.5
2019-Nov-19 08:05 234 2 gusting 4 6.3
2019-Nov-19 08:00 259 2 gusting 4 6.5